Location: Penzberg
(47.7615°N, 11.3159°E)
Time: 22:28:58
(UTC+01:00)

ISS - Visible Passes

Search period start: 25 February 2018 00:00
Search period end: 07 March 2018 00:00
Orbit: 403 x 406 km, 51.6° (Epoch: 26 February)

Date Brightness Start Highest point End Pass type
(mag) Time Alt. Az. Time Alt. Az. Time Alt. Az.
26 Feb -1.2 06:24:24 10° S 06:26:53 20° SE 06:29:22 10° E visible
27 Feb -0.8 05:33:34 10° SSE 05:34:53 12° SE 05:36:12 10° ESE visible
28 Feb -2.5 06:15:34 10° SW 06:18:39 39° SE 06:21:45 10° ENE visible
01 Mar -1.8 05:24:08 12° SSW 05:26:32 24° SE 05:29:14 10° E visible
02 Mar -1.2 04:34:18 14° SE 04:34:28 14° SE 04:36:21 10° E visible
02 Mar -3.7 06:07:13 10° WSW 06:10:29 76° SSE 06:13:46 10° ENE visible
03 Mar -3.1 05:17:00 29° SSW 05:18:15 47° SSE 05:21:26 10° ENE visible
04 Mar -1.8 04:26:55 25° ESE 04:26:55 25° ESE 04:28:57 10° E visible
04 Mar -3.7 05:59:34 13° W 06:02:23 65° NNW 06:05:39 10° ENE visible
05 Mar -3.9 05:09:24 54° WSW 05:10:03 87° SSE 05:13:21 10° ENE visible
06 Mar -1.9 04:19:09 29° E 04:19:09 29° E 04:20:59 10° ENE visible
06 Mar -3.2 05:51:48 15° W 05:54:19 46° N 05:57:30 10° ENE visible
